STARLINK-5456, 55667

Orbit data source: Space-Track

STARLINK-5456, 55667 is a payload satellite owned by SpaceX/Seattle (US) in LEO that was launched on Fri, 17 Feb 2023 UTC via an FALCON 9 launch vehicle from the Air Force Western Test Range (AFWTR). Payload-class satellites include a variety of spacecraft equipped with specific instruments for various scientific and technological missions. These include communications satellites like Starlink; space stations such as the ISS; scientific satellites like the Hubble; Earth observation satellites from companies like Planet Labs, Umbra, and HawkEye 360; GPS; miniature CubeSats for education and research; and military/defense satellites.

Loading next visibility...
Identifier
55667, 2023-021AR
Orbit
LEO
Country
Flag of USUS
Related business
Manufacturer
SpaceX/Seattle
Mission
Operational Commercial Communications
Bus & Motor
STARLINK, Unknown motor
Mass
305 kg wet, ~290 kg dry
Launch date (UTC)
2023-02-17 (3 years ago)
Launch vehicle
FALCON 9
Launch site
Air Force Western Test Range (AFWTR)
Object type
Payload
Rocket body
Debris
Shape & HBR
Box + 1 Pan, 10.1 m
Radar Cross Section
13.562 m², Large (>1 m²)

Expand to show TLE details & history
Last TLE update: 2 days ago

TLE from 2 days ago
0 STARLINK-5456
1 55667U 23021AR  26171.40806992 -.00000534  00000-0 -36995-4 0  9992
2 55667  69.9982 265.3460 0003406 267.9882  92.0886 14.98321744184666
Epoch: 2026-06-20T09:47Z
TLE epoch observation values (Epoch: 2026-06-20T09:47:37.241Z)
Latitude
-0.0001°
Longitude
-150.18233°
Altitude
574.592 km
Speed
7.574 km/s
True Right ascension
17h 41m 23s
True Declination
0° 00' 00"
Sunlit
Object was in full shadow at epoch
Visualization orbit readout
Latitude
Unknown
Longitude
Unknown
Altitude
Unknown
Speed
Unknown
Apparent Right ascension
Unknown
Apparent Declination
Unknown
Sunlit
N/A
Visualization observer readout
Local Sidereal Time
00:50:44
Azimuth
Unknown
Elevation
Unknown
Doppler factor
Unknown
Orbital elements
Apogee altitude
572.396 km
Perigee altitude
567.663 km
Semi-major axis
6,948.167 km
Eccentricity
0.00034
Inclination
69.9982°
RAAN
265.346°
Arg. of periapsis
267.9882°
True anomaly
92.1276°
Mean anomaly
92.0886°
Eccentric anomaly
92.1081°
Mean motion
3.74747 °/min
Orbital period
96.06 mins
BSTAR
-0.000036995
Loading maneuver chart data...
Computing Atmospheric mass density...
Loading historical data...
Loading historical data...
Loading historical data...
Loading historical data...
Loading historical data...
Loading historical data...
Loading historical data...

Documentation

Showing up to 5 results
|